Retour au catalogue

COSMOS 2298 DEB

ActifLEO
NORAD 23434·DEBRIS·🇷🇺 Russia

Lancé Dec 20, 1994 depuis Plesetsk Cosmodrome

Loading…

Prochains Passages (prochaines 24 heures)

TLE

FraisSource: Space-Track

Époque: Sep 14, 2026, 22:12 UTC

1 23434U 94083D   26257.92541697  .00000509  00000-0  17331-3 0  9997
2 23434  74.0288 314.7894 0009841 122.8030 295.7824 14.39024944657411

Suivez COSMOS 2298 DEB en temps réel avec AllMySat

Download on the App Store